Location: Miles
(41.4492°N, 81.6087°W)
Time: 15:05:40
(UTC+00:00)

Explorer 11/Cluster Stage 4 - Visible Passes

Search period start: 13 September 2024 00:00
Search period end: 23 September 2024 00:00
Orbit: 464 x 1209 km, 28.8° (Epoch: 12 September)

Date Brightness Start Highest point End Pass type
(mag) Time Alt. Az. Time Alt. Az. Time Alt. Az.
15 Sep 9.3 10:30:51 10° S 10:33:03 12° SSE 10:35:22 10° SE visible
16 Sep 9.2 10:11:44 10° S 10:13:48 12° SSE 10:15:58 10° SE visible
17 Sep 9.1 09:52:40 10° S 09:54:32 11° SSE 09:56:30 10° SE visible
18 Sep 9.0 09:33:40 10° SSE 09:35:17 11° SSE 09:36:59 10° SE visible
19 Sep 8.8 09:14:44 10° SSE 09:16:02 11° SSE 09:17:24 10° SE visible
20 Sep 8.8 08:56:09 10° SSE 08:56:47 10° SSE 08:57:42 10° SE visible
20 Sep 8.5 10:39:28 10° SW 10:43:43 22° SSE 10:48:38 10° ESE visible
21 Sep 8.4 10:20:27 10° SW 10:24:26 21° S 10:29:02 10° ESE visible
22 Sep 8.3 10:01:55 12° SSW 10:05:10 20° S 10:09:25 10° SE visible
